Regional Weather Roundup
Issued by NWS

Home | Current Version | Previous Version | Text Only | Print | Product List | Glossary On
Versions: 1 2 3 4 5 6 7 8 9 10 11 12 13 14 15 16 17 18 19 20 21 22 23 24 25 26 27 28 29 30 31 32 33 34 35 36 37 38 39 40 41 42 43 44 45 46 47 48 49 50
000
ASUS43 KTOP 300208
RWRKS

WEATHER ROUNDUP FOR KANSAS
NATIONAL WEATHER SERVICE GOODLAND KS
900 PM CDT TUE JUL 29 2014

NOTE:  "FAIR" INDICATES FEW OR NO CLOUDS BELOW 12,000 FEET WITH NO
SIGNIFICANT WEATHER AND/OR OBSTRUCTIONS TO VISIBILITY.

KSZ001>006-013>018-027>032-041>047-300300-
NORTHWEST KANSAS

CITY           SKY/WX    TMP DP  RH WIND       PRES   REMARKS
GOODLAND       CLOUDY    76  61  59 SE10      30.10S
HAYS           CLOUDY    81  57  44 E15G23    30.08R
HILL CITY      CLOUDY    78  56  46 E13       30.09R
RUSSELL        CLOUDY    77  57  50 E14       30.06S
$$

KSZ061>065-074>080-084>089-300300-
SOUTHWEST KANSAS

CITY           SKY/WX    TMP DP  RH WIND       PRES   REMARKS
DODGE CITY     CLOUDY    71  60  68 S8        30.10S
ELKHART          N/A     73  63  71 S8          N/A
GARDEN CITY    CLOUDY    72  63  73 SE9       30.09S
GREAT BEND     MOCLDY    77  61  57 SW8       30.05S
LIBERAL        CLOUDY    73  63  68 SE12      30.10S
PRATT          MOCLDY    72  59  64 SW8       30.09S
$$

KSZ066>073-081>083-090>101-300300-
SOUTHEAST KANSAS

CITY           SKY/WX    TMP DP  RH WIND       PRES   REMARKS
CHANUTE        PTCLDY    71  59  65 NE3       30.08F
COFFEYVILLE    CLOUDY    74  61  63 NE6       30.06F
HUTCHINSON     CLOUDY    80  61  52 E8        30.05S
MEDICINE LODGE   N/A     74  62  66 SW5       30.06S
NEWTON         MOCLDY    75  55  50 E8        30.11S
PARSONS        CLOUDY    71  63  75 CALM      30.08F
WICHITA INTL   MOCLDY    81  63  54 SE15      30.05R
WICHITA JABRA  PTCLDY    77  64  64 E14       30.06R
WICHITA MCCONL MOCLDY    80  64  57 E9        30.06R
WINFIELD       PTCLDY    80  64  58 SE7       30.07R
$$

KSZ007>012-019>026-033>040-048>060-102>105-300300-
NORTHEAST KANSAS

CITY           SKY/WX    TMP DP  RH WIND       PRES   REMARKS
CONCORDIA      MOCLDY    75  60  59 NE10      30.09F
EMPORIA        PTCLDY    69  59  70 S5        30.08S
LAWRENCE       PTCLDY    71  60  68 NE3       30.08S
MANHATTAN      MOCLDY    77  58  51 CALM      30.08R
MARYSVILLE     MOCLDY    72  57  60 NE5       30.10S
OLATHE IND     PTCLDY    71  58  63 N5        30.09F
OLATHE EXE     PTCLDY    74  57  55 N6        30.08S
SALINA         MOCLDY    79  59  50 E8        30.07S
TOPEKA BILLARD MOCLDY    75  60  59 E6        30.08S
TOPEKA FORBES  MOCLDY    75  59  57 NE5       30.08S
$$



USA.gov is the U.S. government's official web portal to all federal, state and local government web resources and services.